[Date Prev][Date Next][Thread Prev][Thread Next] - [Date Index][Thread Index][Author Index]

2 Line ISS Keps 11-17



ISS
1 25544U 98067A   01321.17509889  .00069239  00000-0  79623-3 0  7283
2 25544  51.6413  39.2891 0009266 343.5378 107.1594 15.61319133170952


----
Via the sarex mailing list at AMSAT.ORG courtesy of AMSAT-NA.
To unsubscribe, send "unsubscribe sarex" to Majordomo@amsat.org



AMSAT Top AMSAT Home